Regional Weather Roundup
Issued by NWS

Home | Current Version | Previous Version | Text Only | Print | Product List | Glossary Off
Versions: 1 2 3 4 5 6 7 8 9 10 11 12 13 14 15 16 17 18 19 20 21 22 23 24 25 26 27 28 29 30 31 32 33 34 35 36 37 38 39 40 41 42 43 44 45 46 47 48 49 50

000
ASUS43 KIND 310559
RWRIN

WEATHER ROUNDUP FOR INDIANA
NATIONAL WEATHER SERVICE INDIANAPOLIS IN
200 AM EDT THU JUL 31 2014

NOTE: "FAIR" INDICATES FEW OR NO CLOUDS BELOW 12,000 FEET WITH NO
SIGNIFICANT WEATHER AND/OR OBSTRUCTIONS TO VISIBILITY.

* - STATION DOES NOT REPORT WEATHER SUCH AS PRECIPITATION OR FOG.

+ - STATION NOT QUALITY CONTROLLED BY THE NATIONAL WEATHER SERVICE.
    USE DATA WITH CAUTION...ESPECIALLY DEWPOINT AND RELATIVE
    HUMIDITY OBSERVATIONS.

INZ001>003-010>013-019-020-310700-
NORTHWEST INDIANA

CITY           SKY/WX    TMP DP  RH WIND       PRES   REMARKS
KNOX *+          N/A     54  52  92 CALM      30.04S VSB<1/4
MONTICELLO +   CLEAR     57  56  99 CALM      30.04S
RENSSELAER +   CLEAR     57  57 100 CALM      30.06S FOG
VALPARAISO     PTCLDY    57  55  93 CALM      30.05S
6HR MIN TEMP:  56; 6HR MAX TEMP:  72;


$$

LMZ046-743>745-310700-
SOUTHERN LAKE MICHIGAN

STATION/POSITION TIME  TEMP WIND        PRES
                       AIR  DIR/SP/G
                 (UTC) (F)  (DEG/KT/KT) (MB)
MICHIGAN CITY    0500   63  170/  3/  5   N/A

$$

INZ004-005-014>016-021>024-310700-
NORTH CENTRAL INDIANA

CITY           SKY/WX    TMP DP  RH WIND       PRES   REMARKS
GOSHEN         PTCLDY    58  55  90 CALM      30.04S
6HR MIN TEMP:  58; 6HR MAX TEMP:  73;

SOUTH BEND     CLEAR     58  54  86 CALM      30.05S
6HR MIN TEMP:  58; 6HR MAX TEMP:  72;

WARSAW +       PTCLDY    59  55  88 CALM      30.05S

$$

INZ006>009-017-018-025>027-310700-
NORTHEAST INDIANA

CITY           SKY/WX    TMP DP  RH WIND       PRES   REMARKS
ANGOLA *+      CLEAR     54  54 100 CALM      30.04S
FORT WAYNE     PTCLDY    61  57  87 CALM      30.05S
6HR MIN TEMP:  60; 6HR MAX TEMP:  74;


$$

INZ028-029-035-036-043>045-051>053-310700-
WEST CENTRAL INDIANA

CITY           SKY/WX    TMP DP  RH WIND       PRES   REMARKS
LAFAYETTE      PTCLDY    61  60  97 CALM      30.05R
6HR MIN TEMP:  59; 6HR MAX TEMP:  75;

TERRE HAUTE    CLEAR     61  58  90 CALM      30.07R
6HR MIN TEMP:  59; 6HR MAX TEMP:  76;


$$

INZ030>032-037>040-046>048-054>057-064-065-310700-
CENTRAL INDIANA

CITY           SKY/WX    TMP DP  RH WIND       PRES   REMARKS
INDIANAPOLIS   CLEAR     63  61  93 SW3       30.05S
6HR MIN TEMP:  62; 6HR MAX TEMP:  70;

-EAGLE CREEK   PTCLDY    64  60  87 CALM      30.06S
6HR MIN TEMP:  63; 6HR MAX TEMP:  74;

KOKOMO *+      CLEAR     57  55  94 CALM      30.05S
MT COMFORT *+  PTCLDY    61 N/A N/A CALM      30.07S
SHELBYVILLE    CLEAR     63  59  87 CALM      30.06S
6HR MIN TEMP:  63; 6HR MAX TEMP:  70;


$$

INZ033-034-041-042-049-050-058-059-310700-
EAST CENTRAL INDIANA

CITY           SKY/WX    TMP DP  RH WIND       PRES   REMARKS
MUNCIE         CLEAR     64  59  83 SW7       30.05S
6HR MIN TEMP:  64; 6HR MAX TEMP:  74;


$$

INZ060-061-067>069-081>083-085>088-310700-
SOUTHWEST INDIANA

CITY           SKY/WX    TMP DP  RH WIND       PRES   REMARKS
EVANSVILLE     MOCLDY    67  60  78 CALM      30.09R
6HR MIN TEMP:  67; 6HR MAX TEMP:  78;


$$

INZ062-063-066-070>080-084-089>092-310700-
SOUTH CENTRAL AND SOUTHEAST INDIANA

CITY           SKY/WX    TMP DP  RH WIND       PRES   REMARKS
BLOOMINGTON    CLEAR     59  57  93 CALM      30.08R
6HR MIN TEMP:  59; 6HR MAX TEMP:  74;

SEYMOUR +      CLOUDY    61  52  72 CALM      30.07

$$




USA.gov is the U.S. government's official web portal to all federal, state and local government web resources and services.